Regional Weather Roundup
Issued by NWS

Home | Current Version | Previous Version | Graphics & Text | Print | Product List | Glossary On
Versions: 1 2 3 4 5 6 7 8 9 10 11 12 13 14 15 16 17 18 19 20 21 22 23 24 25 26 27 28 29 30 31 32 33 34 35 36 37 38 39 40 41 42 43 44 45 46 47 48 49 50
000
ASUS43 KFSD 251810
RWRSD

WEATHER ROUNDUP FOR SOUTH DAKOTA
NATIONAL WEATHER SERVICE SIOUX FALLS SD
100 PM CDT SUN JUN 25 2017

NOTE: "FAIR" INDICATES FEW OR NO CLOUDS BELOW 12,000 FEET WITH NO
SIGNIFICANT WEATHER AND/OR OBSTRUCTIONS TO VISIBILITY.


SDZ001>005-009-010-012>017-251900-
NORTHWEST AND NORTH CENTRAL SOUTH DAKOTA

CITY           SKY/WX    TMP DP  RH WIND       PRES   REMARKS
BUFFALO          N/A     75  30  19 W13G18    30.21F
FAITH            N/A     75  32  20 W10       30.26F
MOBRIDGE       MOSUNNY   73  35  25 SE10      30.22F
$$

SDZ012>016-024>037-041>051-057-063-072>074-251900-
SOUTHWEST AND SOUTH CENTRAL SOUTH DAKOTA

CITY           SKY/WX    TMP DP  RH WIND       PRES   REMARKS
RAPID CTY ARPT SUNNY     72  35  25 SE7       30.29F
PIERRE         NOT AVBL
CUSTER         PTSUNNY   65  32  29 VRB7      30.36F
ELLSWORTH AFB  MOSUNNY   71  35  25 W6        30.28F
PHILIP         SUNNY     76  34  21 SW14      30.27F
PINE RIDGE     SUNNY     73  42  32 W6G18     30.31F
SPEARFISH      FAIR      72  39  30 N7        30.31F
WINNER         FAIR      75  34  22 NW8       30.30F
$$

SDZ004>011-016>023-039-040-251900-
NORTHEAST SOUTH DAKOTA

CITY           SKY/WX    TMP DP  RH WIND       PRES   REMARKS
ABERDEEN       PTSUNNY   67  42  40 NW13G21   30.27F
WATERTOWN      CLOUDY    64  44  48 NW13G20   30.27F
BROOKINGS      MOSUNNY   65  42  43 N14G24    30.28F
SISSETON         N/A     69  43  38 NW16G25   30.23F
$$

SDZ017-020-022-023-036>040-048>070-251900-
SOUTHEAST SOUTH DAKOTA

CITY           SKY/WX    TMP DP  RH WIND       PRES   REMARKS
SIOUX FALLS    MOSUNNY   69  46  43 NW10G23   30.28F
HURON          SUNNY     68  42  38 VRB7      30.29F
CHAMBERLAIN    SUNNY     73  40  30 N7        30.29F
YANKTON        SUNNY     68  40  35 NW15      30.30F
$$

ABBREVIATIONS USED IN REMARKS
   TC - TEMPERATURE IN CELSIUS
  WCI - WIND CHILL INDEX
   HX - HEAT INDEX
  VSB - VISIBILITY





USA.gov is the U.S. government's official web portal to all federal, state and local government web resources and services.